GW2364 Weather Reports


time (UTC)temp
C
wind
direction
speed
KPH
gust
KPH
rain 1hr
cm
rain 24hr
cm
rain mn
cm
humidity
%
barometer
mb
20260507084603 15 42 3.2 9.7 0.00 0.00 0.00 87 1014.5
20260507083102 15 59 3.2 11.3 0.00 0.00 0.00 87 1014.3
20260507081612 15 35 1.6 12.9 0.00 0.00 0.00 86 1014.1
20260507080116 15 30 6.4 14.5 0.00 0.00 0.00 86 1013.7
20260507080004 15 51 6.4 14.5 0.00 0.00 0.00 86 1013.7
20260507074601 15 42 4.8 17.7 0.00 0.00 0.00 86 1013.8
20260507073101 15 59 4.8 17.7 0.00 0.00 0.00 85 1013.9
20260507071612 15 61 3.2 9.7 0.00 0.00 0.00 85 1013.9
20260507070100 15 76 4.8 19.3 0.00 0.00 0.00 84 1014.1
20260507070009 15 53 4.8 19.3 0.00 0.00 0.00 84 1014.1
20260507064601 15 49 4.8 11.3 0.00 0.00 0.00 84 1014.0
20260507063104 15 85 6.4 20.9 0.00 0.00 0.00 83 1013.7
20260507061601 15 43 4.8 16.1 0.00 0.00 0.00 83 1013.7
20260507060004 15 57 6.4 14.5 0.00 0.00 0.00 84 1013.5
20260507054503 15 53 4.8 9.7 0.00 0.00 0.00 84 1013.9
20260507053003 15 49 4.8 19.3 0.00 0.00 0.00 83 1013.9
20260507051502 15 76 4.8 16.1 0.00 0.00 0.00 83 1013.7
20260507050010 16 53 9.7 17.7 0.00 0.00 0.00 83 1013.3
20260507044502 16 44 8.0 16.1 0.00 0.00 0.00 83 1013.5
20260507043009 16 15 11.3 22.5 0.00 0.00 0.00 84 1013.7
20260507041502 16 21 4.8 19.3 0.00 0.00 0.00 84 1013.3
20260507040004 16 49 4.8 9.7 0.00 0.00 0.00 84 1013.5
20260507034505 16 13 1.6 6.4 0.00 0.00 0.00 84 1013.7
20260507033008 16 5 3.2 8.0 0.00 0.00 0.00 84 1013.4
20260507031502 16 36 4.8 9.7 0.00 0.00 0.00 83 1013.2
20260507030004 16 355 4.8 11.3 0.00 0.00 0.00 83 1013.3
20260507024502 16 337 3.2 12.9 0.00 0.00 0.00 83 1012.9
20260507023004 16 14 1.6 14.5 0.00 0.00 0.00 83 1012.9
20260507021502 16 338 3.2 9.7 0.00 0.00 0.00 83 1012.6
20260507020006 17 45 3.2 9.7 0.00 0.00 0.00 83 1012.4
20260507014501 17 28 3.2 12.9 0.00 0.00 0.00 82 1012.0
20260507013001 17 284 1.6 6.4 0.00 0.00 0.00 82 1011.8
20260507011505 17 49 3.2 14.5 0.00 0.00 0.00 82 1011.5
20260507010006 17 350 3.2 11.3 0.00 0.00 0.00 82 1011.3
20260507004502 17 17 3.2 9.7 0.00 0.00 0.00 81 1011.1
20260507003003 17 53 3.2 11.3 0.00 0.00 0.00 81 1011.0
20260507001502 17 360 3.2 19.3 0.00 0.00 0.00 82 1011.1
20260507000007 17 17 4.8 14.5 0.00 0.00 0.00 81 1011.0
20260506234502 17 26 4.8 19.3 0.00 0.00 0.00 81 1010.7
20260506233003 17 27 4.8 14.5 0.00 0.00 0.00 80 1010.6
20260506231503 17 30 3.2 9.7 0.00 0.00 0.00 80 1010.6
20260506230004 17 26 4.8 17.7 0.00 0.00 0.00 81 1010.6
20260506224502 17 327 3.2 14.5 0.00 0.00 0.00 80 1010.6
20260506223002 17 299 3.2 17.7 0.00 0.00 0.00 80 1010.5
20260506221507 17 355 6.4 19.3 0.00 0.00 0.00 79 1010.4
20260506220013 17 330 6.4 19.3 0.00 0.00 0.00 78 1010.6
20260506214504 18 340 6.4 17.7 0.00 0.00 0.00 76 1010.3
20260506213002 18 360 6.4 19.3 0.00 0.00 0.00 76 1010.1
20260506211502 20 355 9.7 20.9 0.00 0.00 0.00 72 1010.1
20260506210010 20 9 3.2 22.5 0.00 0.00 0.00 75 1010.2
20260506204502 21 355 6.4 12.9 0.00 0.00 0.00 71 1010.3
20260506203002 21 13 4.8 20.9 0.00 0.00 0.00 72 1010.3
20260506201502 22 5 6.4 20.9 0.00 0.00 0.00 73 1010.2
20260506200005 22 317 11.3 19.3 0.00 0.00 0.00 72 1009.9
20260506194502 22 45 4.8 19.3 0.00 0.00 0.00 75 1009.7
20260506193001 23 21 9.7 20.9 0.00 0.00 0.00 72 1009.6
20260506191502 24 32 9.7 22.5 0.00 0.00 0.00 74 1009.4
20260506190005 24 34 4.8 14.5 0.00 0.00 0.00 73 1009.9
20260506184501 25 42 6.4 12.9 0.00 0.00 0.00 73 1009.8
20260506183004 25 34 3.2 9.7 0.00 0.00 0.00 73 1009.5
20260506181501 25 49 4.8 11.3 0.00 0.00 0.00 74 1009.7
20260506180008 23 55 4.8 14.5 0.00 0.00 0.00 76 1009.5
20260506174501 23 69 3.2 11.3 0.00 0.00 0.00 76 1009.5
20260506173001 22 75 4.8 12.9 0.00 0.00 0.00 79 1009.5
20260506171501 21 75 4.8 11.3 0.00 0.00 0.00 81 1009.8
20260506170003 20 50 6.4 14.5 0.00 0.00 0.00 84 1009.7
20260506164502 18 68 6.4 17.7 0.00 0.00 0.00 90 1010.2
20260506163005 17 319 3.2 30.6 0.00 0.00 0.00 91 1010.7
20260506161502 17 54 17.7 37.0 0.00 0.00 0.00 88 1010.7
20260506160005 18 52 20.9 43.5 0.00 0.00 0.00 89 1010.3
20260506154501 19 5 17.7 30.6 0.00 0.00 0.00 87 1010.3
20260506153005 21 28 14.5 27.4 0.00 0.00 0.00 83 1010.0
20260506151501 25 101 0.0 4.8 0.00 0.00 0.00 87 1009.1
20260506150003 25 101 0.0 4.8 0.00 0.00 0.00 86 1009.2
20260506144500 25 88 1.6 6.4 0.00 0.00 0.00 86 1008.6
20260506143001 25 94 1.6 9.7 0.00 0.00 0.00 88 1008.2
20260506141502 24 94 1.6 9.7 0.00 0.00 0.00 90 1007.7
20260506140003 23 69 0.0 4.8 0.00 0.00 0.00 91 1008.4
20260506134500 23 62 1.6 4.8 0.00 0.00 0.00 91 1007.7
20260506133001 23 92 1.6 6.4 0.00 0.00 0.00 92 1007.8
20260506131504 23 65 1.6 9.7 0.00 0.00 0.00 93 1007.6
20260506130004 23 80 0.0 4.8 0.00 0.00 0.00 93 1007.4
20260506124501 23 125 1.6 6.4 0.00 0.00 0.00 93 1007.2
20260506123002 22 71 1.6 3.2 0.00 0.00 0.00 93 1007.2
20260506121601 22 223 0.0 1.6 0.00 0.00 0.00 93 1007.3
20260506120115 23 223 0.0 1.6 0.00 0.00 0.00 93 1007.2
20260506120006 23 223 0.0 1.6 0.00 0.00 0.00 93 1007.1
20260506114502 23 223 0.0 1.6 0.00 0.00 0.00 92 1007.0
20260506113101 23 223 0.0 1.6 0.00 0.00 0.00 92 1007.2
20260506111601 23 223 0.0 0.0 0.00 0.00 0.00 92 1007.1
20260506110100 23 223 0.0 1.6 0.00 0.00 0.00 92 1007.1
20260506110004 23 223 0.0 1.6 0.00 0.00 0.00 92 1007.1
20260506104602 23 223 0.0 1.6 0.00 0.00 0.00 92 1007.0
20260506103101 23 227 0.0 3.2 0.00 0.00 0.00 92 1006.7
20260506101632 23 227 1.6 8.0 0.00 0.00 0.00 92 1006.6
20260506100106 23 237 1.6 8.0 0.00 0.00 0.00 92 1006.5
20260506100004 23 232 0.0 6.4 0.00 0.00 0.00 92 1006.5
20260506094614 23 233 1.6 8.0 0.00 0.00 0.00 93 1006.4
20260506093100 23 234 1.6 8.0 0.00 0.00 0.00 93 1006.2
20260506091606 23 241 1.6 11.3 0.00 0.00 0.00 93 1006.0
20260506090008 23 85 1.6 6.4 0.00 0.00 0.00 91 1005.9